DLH11EM LSZH-LIRA

Flight info

Callsign DLH11EM
Flight time N/A
Altitude 38000
Route VEBIT4N/32 VEBIT T53 GERSA DCT SOSON DCT ODINA DCT OLNUK/N0481F390 DCT EKDIR DCT KUGIX DCT AMTEL DCT GITOD GITOD3F
Aircraft A359/H-SDE2E3GHIJ3J4J5LM1ORWXY/LB1D1

Departure

Time 2026-04-30 14:13
Airport Zürich Airport (LSZH)

Arrival

Time N/A
Airport Ciampino–G. B. Pastine International Airport (LIRA)
Time Latitude Longitude Altitude Speed Heading
2026-04-30 13:34 47.44784 8.56172 1404 ft 0 kts 65°
2026-04-30 14:00 47.44776 8.56145 1413 ft 4 kts 65°
2026-04-30 14:00 47.44757 8.56083 1409 ft 4 kts 49°
2026-04-30 14:00 47.44739 8.56075 1410 ft 5 kts 340°
2026-04-30 14:01 47.44716 8.56089 1411 ft 5 kts 335°
2026-04-30 14:01 47.44692 8.56106 1411 ft 3 kts 335°
2026-04-30 14:01 47.44690 8.56107 1411 ft 0 kts 335°
2026-04-30 14:04 47.44718 8.56088 1411 ft 9 kts 335°
2026-04-30 14:04 47.44800 8.56032 1413 ft 17 kts 335°
2026-04-30 14:04 47.44920 8.55944 1414 ft 15 kts 320°
2026-04-30 14:05 47.44955 8.55786 1413 ft 20 kts 275°
2026-04-30 14:05 47.45022 8.55632 1413 ft 19 kts 336°
2026-04-30 14:05 47.45140 8.55552 1417 ft 19 kts 335°
2026-04-30 14:05 47.45261 8.55469 1415 ft 20 kts 335°
2026-04-30 14:06 47.45363 8.55332 1414 ft 21 kts 298°
2026-04-30 14:06 47.45482 8.54872 1403 ft 27 kts 289°
2026-04-30 14:07 47.45595 8.54363 1405 ft 22 kts 288°
2026-04-30 14:07 47.45645 8.54138 1400 ft 24 kts 288°
2026-04-30 14:07 47.45674 8.54000 1400 ft 13 kts 287°
2026-04-30 14:08 47.45726 8.53804 1408 ft 7 kts 309°
2026-04-30 14:08 47.45759 8.53770 1407 ft 5 kts 333°
2026-04-30 14:08 47.45777 8.53761 1410 ft 0 kts 346°
2026-04-30 14:10 47.45779 8.53761 1401 ft 2 kts 346°
2026-04-30 14:11 47.45852 8.53768 1406 ft 13 kts 12°
2026-04-30 14:11 47.45884 8.53829 1411 ft 8 kts 75°
2026-04-30 14:11 47.45885 8.53878 1408 ft 0 kts 97°
2026-04-30 14:12 47.45881 8.53920 1408 ft 16 kts 96°
2026-04-30 14:13 47.45849 8.54371 1400 ft 63 kts 95°
2026-04-30 14:13 47.45780 8.55367 1411 ft 130 kts 96°
2026-04-30 14:13 47.45650 8.56919 1692 ft 163 kts 97°
2026-04-30 14:13 47.45482 8.58570 2583 ft 160 kts 92°
2026-04-30 14:14 47.45373 8.60309 3118 ft 183 kts 91°
2026-04-30 14:14 47.45262 8.62279 3737 ft 197 kts 92°
2026-04-30 14:14 47.45286 8.64346 4460 ft 209 kts 83°
2026-04-30 14:14 47.45488 8.66556 4861 ft 216 kts 81°
2026-04-30 14:15 47.45716 8.68723 4985 ft 211 kts 81°
2026-04-30 14:15 47.45933 8.70806 5015 ft 207 kts 81°
2026-04-30 14:15 47.46145 8.72899 5010 ft 207 kts 81°
2026-04-30 14:15 47.46207 8.75025 4994 ft 210 kts 97°
2026-04-30 14:16 47.45653 8.77037 5217 ft 219 kts 126°
2026-04-30 14:16 47.44470 8.78504 5824 ft 225 kts 146°
2026-04-30 14:16 47.43047 8.79501 6550 ft 229 kts 165°
2026-04-30 14:16 47.41463 8.79508 7226 ft 234 kts 195°
2026-04-30 14:17 47.39965 8.78348 7575 ft 256 kts 216°
2026-04-30 14:17 47.38517 8.76655 8044 ft 273 kts 219°
2026-04-30 14:17 47.37023 8.74866 8764 ft 279 kts 218°
2026-04-30 14:17 47.35489 8.73061 9504 ft 286 kts 217°
2026-04-30 14:18 47.33933 8.71257 10279 ft 291 kts 217°
2026-04-30 14:18 47.32303 8.69384 10770 ft 307 kts 217°
2026-04-30 14:18 47.28701 8.65269 11395 ft 348 kts 217°
2026-04-30 14:19 47.24721 8.60743 12141 ft 369 kts 217°
2026-04-30 14:19 47.23373 8.59217 12233 ft 370 kts 217°
2026-04-30 14:19 47.21334 8.56911 12227 ft 370 kts 217°
2026-04-30 14:20 47.18609 8.53890 12225 ft 371 kts 213°
2026-04-30 14:20 47.16301 8.52232 12214 ft 370 kts 195°
2026-04-30 14:20 47.11222 8.51825 12202 ft 367 kts 182°
2026-04-30 14:21 47.08704 8.51209 12202 ft 369 kts 196°
2026-04-30 14:21 47.07119 8.50295 12206 ft 370 kts 206°
2026-04-30 14:21 47.02855 8.44352 12204 ft 367 kts 241°
2026-04-30 14:22 47.01893 8.40911 12209 ft 366 kts 256°
2026-04-30 14:22 47.01810 8.33551 12228 ft 364 kts 285°
2026-04-30 14:22 47.02705 8.30085 12545 ft 365 kts 299°
2026-04-30 14:23 47.05332 8.25278 13813 ft 365 kts 323°
2026-04-30 14:23 47.09893 8.22195 15239 ft 364 kts 351°
2026-04-30 14:24 47.15823 8.22556 16626 ft 371 kts 11°
2026-04-30 14:24 47.18349 8.23306 17385 ft 371 kts 17°
2026-04-30 14:25 47.22172 8.26185 18415 ft 376 kts 40°
2026-04-30 14:25 47.25052 8.32590 19499 ft 389 kts 73°
2026-04-30 14:26 47.24862 8.40535 20799 ft 400 kts 106°
2026-04-30 14:26 47.23622 8.44226 21436 ft 407 kts 122°
2026-04-30 14:26 47.19261 8.49670 22626 ft 423 kts 149°
2026-04-30 14:27 47.16544 8.51263 23193 ft 431 kts 163°
2026-04-30 14:27 47.13577 8.52065 23745 ft 437 kts 170°
2026-04-30 14:27 47.10547 8.52570 24216 ft 441 kts 172°
2026-04-30 14:28 47.04369 8.53314 25153 ft 449 kts 173°
2026-04-30 14:28 47.01248 8.53686 25680 ft 451 kts 172°
2026-04-30 14:28 46.98110 8.54084 26136 ft 455 kts 172°
2026-04-30 14:28 46.94952 8.54511 26680 ft 457 kts 172°
2026-04-30 14:29 46.88723 8.55404 27658 ft 461 kts 169°
2026-04-30 14:29 46.82300 8.56483 28549 ft 468 kts 169°
2026-04-30 14:30 46.72463 8.58022 29721 ft 480 kts 169°
2026-04-30 14:31 46.65781 8.58980 30521 ft 486 kts 169°
2026-04-30 14:31 46.59031 8.59941 31195 ft 490 kts 170°
2026-04-30 14:31 46.55670 8.60421 31491 ft 493 kts 170°
2026-04-30 14:32 46.48801 8.61390 32041 ft 499 kts 171°
2026-04-30 14:32 46.45335 8.61877 32346 ft 501 kts 171°
2026-04-30 14:32 46.41855 8.62367 32580 ft 504 kts 171°
2026-04-30 14:33 46.38363 8.62859 32877 ft 506 kts 171°
2026-04-30 14:33 46.31365 8.63844 33261 ft 510 kts 171°
2026-04-30 14:33 46.27787 8.64346 33278 ft 509 kts 171°
2026-04-30 14:34 46.20780 8.65326 33284 ft 510 kts 172°
2026-04-30 14:34 46.13764 8.66723 33429 ft 509 kts 162°
2026-04-30 14:35 46.07304 8.70636 34148 ft 502 kts 144°
2026-04-30 14:35 46.04422 8.73476 34350 ft 502 kts 140°
2026-04-30 14:35 46.01645 8.76523 34529 ft 504 kts 138°
2026-04-30 14:36 45.98902 8.79679 34622 ft 507 kts 137°
2026-04-30 14:36 45.96165 8.82872 34899 ft 506 kts 137°
2026-04-30 14:36 45.93429 8.86051 35197 ft 505 kts 138°
2026-04-30 14:36 45.90728 8.89160 35438 ft 505 kts 138°
2026-04-30 14:37 45.87976 8.92299 35662 ft 505 kts 138°
2026-04-30 14:37 45.85217 8.95421 35893 ft 505 kts 139°
2026-04-30 14:37 45.82454 8.98532 36110 ft 505 kts 139°
2026-04-30 14:37 45.79683 9.01640 36324 ft 505 kts 139°
2026-04-30 14:38 45.76913 9.04742 36534 ft 506 kts 139°
2026-04-30 14:38 45.74138 9.07845 36670 ft 508 kts 139°
2026-04-30 14:38 45.71349 9.10962 36755 ft 510 kts 139°
2026-04-30 14:38 45.68545 9.14093 36946 ft 510 kts 139°
2026-04-30 14:39 45.65788 9.17166 37164 ft 510 kts 139°
2026-04-30 14:39 45.62973 9.20260 37266 ft 511 kts 141°
2026-04-30 14:39 45.60141 9.23311 37260 ft 510 kts 142°
2026-04-30 14:40 45.51672 9.32504 37265 ft 510 kts 141°
2026-04-30 14:40 45.46062 9.38690 37181 ft 511 kts 141°
2026-04-30 14:41 45.40433 9.44908 37166 ft 513 kts 141°
2026-04-30 14:41 45.34828 9.51085 37199 ft 513 kts 141°
2026-04-30 14:42 45.29176 9.57292 37214 ft 513 kts 141°
2026-04-30 14:42 45.23527 9.63477 37240 ft 513 kts 141°
2026-04-30 14:43 45.17871 9.69654 37244 ft 514 kts 141°
2026-04-30 14:43 45.12186 9.75850 37228 ft 516 kts 142°
2026-04-30 14:44 45.06483 9.82046 37229 ft 517 kts 142°
2026-04-30 14:44 45.00818 9.88185 37232 ft 517 kts 142°
2026-04-30 14:45 44.95109 9.94356 37227 ft 517 kts 142°
2026-04-30 14:45 44.89387 10.00526 37240 ft 518 kts 142°
2026-04-30 14:46 44.83648 10.06698 37259 ft 519 kts 143°
2026-04-30 14:46 44.77945 10.12815 37262 ft 519 kts 143°
2026-04-30 14:47 44.72200 10.18964 37273 ft 519 kts 143°
2026-04-30 14:47 44.66438 10.25113 37290 ft 521 kts 143°
2026-04-30 14:48 44.60650 10.31274 37248 ft 522 kts 143°
2026-04-30 14:48 44.54892 10.37388 37248 ft 522 kts 143°
2026-04-30 14:49 44.49093 10.43530 37272 ft 523 kts 143°
2026-04-30 14:49 44.43274 10.49677 37249 ft 524 kts 143°
2026-04-30 14:50 44.37469 10.55792 36902 ft 519 kts 143°
2026-04-30 14:50 44.34592 10.58622 36131 ft 521 kts 148°
2026-04-30 14:51 44.28479 10.64029 35374 ft 526 kts 149°
2026-04-30 14:51 44.25367 10.66728 35253 ft 529 kts 149°
2026-04-30 14:52 44.16123 10.75100 35246 ft 531 kts 145°
2026-04-30 14:52 44.07224 10.84272 35228 ft 531 kts 145°
2026-04-30 14:53 43.98281 10.93385 35219 ft 532 kts 145°
2026-04-30 14:54 43.86327 11.05353 35207 ft 532 kts 146°
2026-04-30 14:55 43.77298 11.14351 35211 ft 534 kts 146°
2026-04-30 14:56 43.65270 11.26292 35181 ft 534 kts 147°
2026-04-30 14:57 43.56146 11.35255 35177 ft 537 kts 149°
2026-04-30 14:58 43.43132 11.45282 35169 ft 536 kts 155°
2026-04-30 14:58 43.33321 11.52518 33574 ft 540 kts 156°
2026-04-30 14:59 43.26696 11.57407 31930 ft 541 kts 156°
2026-04-30 15:00 43.18190 11.67403 29962 ft 543 kts 131°
2026-04-30 15:00 43.13445 11.75348 28764 ft 534 kts 130°
2026-04-30 15:01 43.08798 11.83155 27633 ft 524 kts 130°
2026-04-30 15:01 43.06507 11.86996 27089 ft 519 kts 130°
2026-04-30 15:01 43.01977 11.94583 25976 ft 510 kts 129°
2026-04-30 15:02 42.99774 11.98265 25411 ft 505 kts 129°
2026-04-30 15:02 42.97563 12.01959 24891 ft 500 kts 129°
2026-04-30 15:03 42.91090 12.12737 23954 ft 472 kts 129°
2026-04-30 15:03 42.87030 12.19479 23525 ft 449 kts 129°
2026-04-30 15:04 42.83188 12.25846 23109 ft 426 kts 129°
2026-04-30 15:04 42.76925 12.33638 22489 ft 394 kts 151°
2026-04-30 15:05 42.69909 12.39180 21296 ft 384 kts 152°
2026-04-30 15:06 42.65328 12.42814 20499 ft 379 kts 152°
2026-04-30 15:06 42.60845 12.46376 19738 ft 373 kts 151°
2026-04-30 15:07 42.56399 12.49905 18985 ft 367 kts 151°
2026-04-30 15:07 42.52020 12.53377 18216 ft 362 kts 151°
2026-04-30 15:08 42.47699 12.56798 17370 ft 357 kts 151°
2026-04-30 15:08 42.41355 12.61768 16233 ft 348 kts 154°
2026-04-30 15:09 42.36775 12.62559 15586 ft 329 kts 192°
2026-04-30 15:09 42.32334 12.61585 15007 ft 317 kts 193°
2026-04-30 15:10 42.28120 12.60634 14681 ft 298 kts 193°
2026-04-30 15:11 42.20418 12.57716 13489 ft 280 kts 205°
2026-04-30 15:11 42.16832 12.55926 12948 ft 270 kts 205°
2026-04-30 15:12 42.11740 12.53402 12401 ft 253 kts 205°
2026-04-30 15:13 42.08478 12.51780 11921 ft 250 kts 204°
2026-04-30 15:14 42.02002 12.48591 10897 ft 245 kts 204°
2026-04-30 15:14 41.97083 12.47598 10104 ft 246 kts 157°
2026-04-30 15:16 41.91277 12.51662 3536 ft 195 kts 152°
2026-04-30 15:17 41.86330 12.55201 1451 ft 203 kts 151°
2026-04-30 15:18 41.81171 12.58635 465 ft 133 kts 155°
2026-04-30 15:19 41.79310 12.59916 426 ft 55 kts 152°